STARLINK-2096, 47376

Orbit data source: Space-Track

STARLINK-2096, 47376 is a payload satellite owned by SpaceX/Seattle (US) in LEO that was launched on Wed, 20 Jan 2021 UTC via an FALCON 9 launch vehicle from the Air Force Eastern Test Range (AFETR). Payload-class satellites include a variety of spacecraft equipped with specific instruments for various scientific and technological missions. These include communications satellites like Starlink; space stations such as the ISS; scientific satellites like the Hubble; Earth observation satellites from companies like Planet Labs, Umbra, and HawkEye 360; GPS; miniature CubeSats for education and research; and military/defense satellites.

Loading next visibility...
Identifier
47376, 2021-005AD
Orbit
LEO
Country
Flag of USUS
Related business
Manufacturer
SpaceX/Seattle
Mission
Operational Commercial Communications
Bus & Motor
STARLINK, Unknown motor
Mass
260 kg wet, ~248 kg dry
Launch date (UTC)
2021-01-20 (5 years ago)
Launch vehicle
FALCON 9
Launch site
Air Force Eastern Test Range (AFETR)
Object type
Payload
Rocket body
Debris
Shape & HBR
Box + 1 Pan, 10.1 m
Radar Cross Section
13.562 m², Large (>1 m²)

Expand to show TLE details & history
Last TLE update: 2 days ago

TLE from 2 days ago
0 STARLINK-2096
1 47376U 21005AD  26171.41764505 -.00002943  00000-0 -83220-4 0  9993
2 47376  53.1598 304.6241 0007278 111.6226 248.5552 15.31577117298764
Epoch: 2026-06-20T10:01Z
TLE epoch observation values (Epoch: 2026-06-20T10:01:24.532Z)
Latitude
0.00004°
Longitude
-114.36065°
Altitude
473.832 km
Speed
7.629 km/s
True Right ascension
20h 18m 29s
True Declination
0° 00' 00"
Sunlit
Object was in full shadow at epoch
Visualization orbit readout
Latitude
Unknown
Longitude
Unknown
Altitude
Unknown
Speed
Unknown
Apparent Right ascension
Unknown
Apparent Declination
Unknown
Sunlit
N/A
Visualization observer readout
Local Sidereal Time
00:49:53
Azimuth
Unknown
Elevation
Unknown
Doppler factor
Unknown
Orbital elements
Apogee altitude
476.348 km
Perigee altitude
466.378 km
Semi-major axis
6,849.5 km
Eccentricity
0.00073
Inclination
53.1598°
RAAN
304.6241°
Arg. of periapsis
111.6226°
True anomaly
248.4776°
Mean anomaly
248.5552°
Eccentric anomaly
248.5164°
Mean motion
3.82873 °/min
Orbital period
94.03 mins
BSTAR
-0.00008322
Loading maneuver chart data...
Computing Atmospheric mass density...

Documentation

Showing up to 5 results
|